Weather History for KDTS - March, 2013

Change the Weather History Date:

Wednesday, March 20, 2013

  Actual Average Record
Temperature  
Mean Temperature 60 °F -  
Max Temperature 68 °F 66 °F 77 °F (2004)
Min Temperature 50 °F 52 °F 44 °F (2001)
Degree Days  
Heating Degree Days 4    
Growing Degree Days 10 (Base 50)    
Moisture  
Dew Point 35 °F    
Average Humidity 38    
Maximum Humidity 59    
Minimum Humidity 29    
Precipitation  
Precipitation 0.00 in - - ()
Sea Level Pressure  
Sea Level Pressure 30.01 in    
Wind  
Wind Speed 9 mph (NNE)    
Max Wind Speed 14 mph    
Max Gust Speed 22 mph    
Visibility 10 miles    
Events      
Averages and records for this station are not official NWS values.
T = Trace of Precipitation, MM = Missing Value Source: NWS Daily Summary

Daily Weather History Graph

Daily Weather History Graph

Search for Another Location

Airport or City:

Trip Planner

Search our weather history database for the weather conditions in past years. The results will help you decide how hot, cold, wet, or windy it might be!

Date:

Astronomy

Mar. 20, 2013 Rise Set
Actual Time 6:49 AM CDT 6:57 PM CDT
Civil Twilight 6:25 AM CDT 7:21 PM CDT
Nautical Twilight 5:57 AM CDT 7:49 PM CDT
Astronomical Twilight 5:29 AM CDT 8:17 PM CDT
Moon 12:54 PM CDT (3/20) 2:06 AM CDT (3/20)
Length of Visible Light 12h 56m
Length of Day
12h 08m
First Quarter, 59% of the Moon is Illuminated
Mar 20
First Quarter
Mar 27
Full
Apr 2
Last Quarter
Apr 10
New
Apr 18
First Quarter

Hourly Weather History & Observations

Time (CDT) Temp. Dew Point Humidity Pressure Visibility Wind Dir Wind Speed Gust Speed Precip Events Conditions
12:53 AM 64.0 °F 44.1 °F 48% 29.99 in 10.0 mi NNE 6.9 mph - N/A   Partly Cloudy
1:53 AM 63.0 °F 41.0 °F 45% 29.97 in 10.0 mi NE 8.1 mph - N/A   Clear
2:53 AM 63.0 °F 37.9 °F 40% 29.95 in 10.0 mi NE 10.4 mph 18.4 mph N/A   Clear
3:53 AM 62.1 °F 36.0 °F 38% 29.96 in 10.0 mi NNE 10.4 mph 18.4 mph N/A   Overcast
4:53 AM 61.0 °F 35.1 °F 38% 29.97 in 10.0 mi NE 12.7 mph 21.9 mph N/A   Overcast
5:53 AM 60.1 °F 35.1 °F 39% 30.00 in 10.0 mi NE 9.2 mph 17.3 mph N/A   Mostly Cloudy
6:53 AM 60.1 °F 34.0 °F 38% 30.04 in 10.0 mi NE 11.5 mph 19.6 mph N/A   Mostly Cloudy
7:53 AM 57.9 °F 36.0 °F 44% 30.06 in 10.0 mi NNE 11.5 mph 17.3 mph N/A   Partly Cloudy
8:53 AM 60.1 °F 34.0 °F 38% 30.07 in 10.0 mi NE 11.5 mph 18.4 mph N/A   Mostly Cloudy
9:53 AM 64.0 °F 33.1 °F 31% 30.06 in 10.0 mi NNE 11.5 mph 17.3 mph N/A   Clear
10:53 AM 64.9 °F 32.0 °F 29% 30.06 in 10.0 mi NNE 10.4 mph - N/A   Clear
11:53 AM 64.0 °F 33.1 °F 31% 30.05 in 10.0 mi ENE 6.9 mph - N/A   Mostly Cloudy
12:53 PM 64.9 °F 36.0 °F 34% 30.04 in 10.0 mi North 6.9 mph - N/A   Mostly Cloudy
1:53 PM 64.9 °F 36.0 °F 34% 30.01 in 10.0 mi North 8.1 mph - 0.00 in   Overcast
2:53 PM 64.0 °F 36.0 °F 35% 30.01 in 10.0 mi NNW 11.5 mph - N/A   Mostly Cloudy
3:53 PM 64.9 °F 35.1 °F 33% 29.98 in 10.0 mi North 10.4 mph - N/A   Clear
4:53 PM 66.9 °F 35.1 °F 31% 29.97 in 10.0 mi North 11.5 mph - N/A   Clear
5:53 PM 66.0 °F 34.0 °F 30% 29.96 in 10.0 mi North 13.8 mph - N/A   Clear
6:53 PM 62.1 °F 32.0 °F 32% 29.97 in 10.0 mi NNW 9.2 mph - N/A   Clear
7:53 PM 60.1 °F 32.0 °F 35% 29.99 in 10.0 mi NNW 8.1 mph - N/A   Clear
8:53 PM 57.9 °F 34.0 °F 41% 30.00 in 10.0 mi NNW 5.8 mph - N/A   Clear
9:53 PM 57.0 °F 33.1 °F 40% 30.01 in 10.0 mi NNW 8.1 mph - N/A   Clear
10:53 PM 55.0 °F 33.1 °F 43% 30.01 in 10.0 mi North 4.6 mph - N/A   Clear
11:53 PM 50.0 °F 36.0 °F 59% 30.00 in 10.0 mi Calm Calm - N/A   Clear